sat.trackr.live / text

‹ back to catalog

STARLINK-1661

NORAD 46355 · 2020-062AG

PAYLOAD ACTIVE UNKNOWN

§ Identity

Operator
Country
US
Launch date
2020-09-03
Launch site
AFETR
Launch vehicle
Mass (kg)
RCS (m²)

Purposes: comms

External: N2YO · Heavens-Above · Gunter

§ Orbital elements

Epoch: 2026-05-24T22:21:12.129696Z

Period
93.71 min
Inclination
53.1561°
Eccentricity
0.0004579
Mean motion
15.36658201 rev/d
Perigee alt
452.9 km
Apogee alt
459.1 km
Semi-major
6,834.1 km
B*
1.3347e-3
RAAN
15.1873°
Arg perigee
129.8885°
Mean anomaly
230.2521°
Rev number
31,609

§ Raw data

STARLINK-16611 46355U 20062AG  26144.93139039  .00048413  00000+0  13347-2 0  99962 46355  53.1561  15.1873 0004579 129.8885 230.2521 15.36658201316098

JSON: /api/v1/satellites/46355 · /tle

For live sub-satellite position, see the globe view (requires WebGL).

§ Visibility from observer

Set your observer location to see the next 7 days of passes ≥ 10°. The values pass through the URL so the page stays shareable.

No JS? Fill the form by hand. The geolocation button needs JavaScript.